Tiempo cada hora Muş

Hoy, 28 Octubre, Miércoles

Tiempo Temperatura Precipitaciones Viento Presión Humedad
00:00 +9°C° 0 mm 0 mps 649 mmHg 49%
01:00 +8°C° 0 mm 0 mps 649 mmHg 49%
02:00 +8°C° 0 mm 0 mps 649 mmHg 50%
03:00 +8°C° 0 mm 0 mps 649 mmHg 50%
04:00 +8°C° 0 mm 0 mps 649 mmHg 49%
05:00 +8°C° 0 mm 0 mps 649 mmHg 48%
06:00 +8°C° 0 mm 0 mps 649 mmHg 48%
07:00 +10°C° 0 mm 0 mps 650 mmHg 39%
08:00 +13°C° 0 mm 0 mps 651 mmHg 31%
09:00 +16°C° 0 mm 0 mps 653 mmHg 22%
10:00 +20°C° 0 mm 1 mps 653 mmHg 20%
11:00 +22°C° 0 mm 1 mps 653 mmHg 18%
12:00 +24°C° 0 mm 1 mps 653 mmHg 16%
13:00 +24°C° 0 mm 1 mps 653 mmHg 16%
14:00 +24°C° 0 mm 1 mps 653 mmHg 16%
15:00 +25°C° 0 mm 2 mps 652 mmHg 17%
16:00 +22°C° 0 mm 1 mps 652 mmHg 21%
17:00 +19°C° 0 mm 1 mps 651 mmHg 25%
18:00 +16°C° 0 mm 1 mps 650 mmHg 29%
19:00 +15°C° 0 mm 1 mps 650 mmHg 31%
20:00 +14°C° 0 mm 1 mps 650 mmHg 34%
21:00 +14°C° 0 mm 1 mps 650 mmHg 36%
22:00 +13°C° 0 mm 1 mps 650 mmHg 39%
23:00 +12°C° 0 mm 1 mps 649 mmHg 43%

Mañana, 29 Octubre, Jueves

Tiempo Temperatura Precipitaciones Viento Presión Humedad
00:00 +12°C° 0 mm 1 mps 649 mmHg 46%
01:00 +11°C° 0 mm 0 mps 649 mmHg 46%
02:00 +10°C° 0 mm 0 mps 649 mmHg 46%
03:00 +10°C° 0 mm 0 mps 649 mmHg 46%
04:00 +10°C° 0 mm 0 mps 649 mmHg 47%
05:00 +10°C° 0 mm 0 mps 649 mmHg 47%
06:00 +9°C° 0 mm 0 mps 649 mmHg 48%
07:00 +12°C° 0 mm 0 mps 650 mmHg 39%
08:00 +15°C° 0 mm 0 mps 651 mmHg 30%
09:00 +20°C° 0 mm 1 mps 652 mmHg 21%
10:00 +21°C° 0 mm 2 mps 652 mmHg 20%
11:00 +24°C° 0 mm 2 mps 652 mmHg 18%
12:00 +25°C° 0 mm 3 mps 652 mmHg 16%
13:00 +25°C° 0 mm 4 mps 652 mmHg 16%
14:00 +26°C° 0 mm 5 mps 651 mmHg 17%
15:00 +26°C° 0 mm 6 mps 651 mmHg 17%
16:00 +22°C° 0 mm 5 mps 650 mmHg 21%
17:00 +19°C° 0 mm 4 mps 650 mmHg 25%
18:00 +16°C° 0 mm 2 mps 649 mmHg 28%
19:00 +15°C° 0 mm 2 mps 649 mmHg 30%
20:00 +14°C° 0 mm 2 mps 649 mmHg 32%
21:00 +13°C° 0 mm 1 mps 649 mmHg 34%
22:00 +13°C° 0 mm 1 mps 648 mmHg 35%
23:00 +12°C° 0 mm 1 mps 648 mmHg 36%

Pasado mañana, 30 Octubre, Viernes

Tiempo Temperatura Precipitaciones Viento Presión Humedad
00:00 +12°C° 0 mm 1 mps 648 mmHg 37%
01:00 +11°C° 0 mm 1 mps 648 mmHg 39%
02:00 +11°C° 0 mm 1 mps 648 mmHg 41%
03:00 +11°C° 0 mm 1 mps 647 mmHg 43%
04:00 +11°C° 0 mm 1 mps 647 mmHg 45%
05:00 +10°C° 0 mm 1 mps 647 mmHg 46%
06:00 +10°C° 0 mm 1 mps 647 mmHg 48%
07:00 +13°C° 0 mm 1 mps 648 mmHg 42%
08:00 +15°C° 0 mm 1 mps 650 mmHg 37%
09:00 +19°C° 0 mm 1 mps 651 mmHg 31%
10:00 +20°C° 0 mm 3 mps 651 mmHg 31%
11:00 +21°C° 0 mm 5 mps 651 mmHg 30%
12:00 +23°C° 0 mm 6 mps 651 mmHg 30%
13:00 +23°C° 0 mm 7 mps 650 mmHg 29%
14:00 +23°C° 0 mm 7 mps 650 mmHg 29%
15:00 +23°C° 0 mm 8 mps 650 mmHg 29%
16:00 +21°C° 0 mm 6 mps 649 mmHg 33%
17:00 +19°C° 0 mm 5 mps 649 mmHg 38%
18:00 +16°C° 0 mm 3 mps 649 mmHg 43%
19:00 +14°C° 0 mm 3 mps 648 mmHg 48%
20:00 +14°C° 0 mm 2 mps 648 mmHg 52%
21:00 +13°C° 0 mm 2 mps 648 mmHg 57%
22:00 +13°C° 0 mm 1 mps 648 mmHg 58%
23:00 +12°C° 0 mm 1 mps 648 mmHg 58%

31 Octubre, Sábado

Tiempo Temperatura Precipitaciones Viento Presión Humedad
00:00 +12°C° 0 mm 1 mps 647 mmHg 59%
01:00 +12°C° 0 mm 1 mps 647 mmHg 61%
02:00 +11°C° 0 mm 1 mps 647 mmHg 62%
03:00 +11°C° 0 mm 1 mps 647 mmHg 64%
04:00 +11°C° 0 mm 1 mps 647 mmHg 65%
05:00 +11°C° 0 mm 1 mps 647 mmHg 67%
06:00 +10°C° 0 mm 1 mps 647 mmHg 68%
07:00 +12°C° 0.1 mm 1 mps 648 mmHg 61%
08:00 +15°C° 0.1 mm 2 mps 649 mmHg 54%
09:00 +17°C° 0.1 mm 3 mps 650 mmHg 47%
10:00 +19°C° 0 mm 4 mps 650 mmHg 41%
11:00 +20°C° 0 mm 5 mps 650 mmHg 35%
12:00 +22°C° 0 mm 6 mps 650 mmHg 29%
13:00 +22°C° 0 mm 7 mps 650 mmHg 28%
14:00 +22°C° 0 mm 7 mps 650 mmHg 27%
15:00 +21°C° 0 mm 8 mps 650 mmHg 25%
16:00 +19°C° 0 mm 6 mps 649 mmHg 29%
17:00 +17°C° 0 mm 5 mps 649 mmHg 33%
18:00 +16°C° 0 mm 3 mps 648 mmHg 37%
19:00 +14°C° 0 mm 3 mps 648 mmHg 38%
20:00 +13°C° 0 mm 3 mps 648 mmHg 39%
21:00 +14°C° 0 mm 2 mps 648 mmHg 39%
22:00 +14°C° 0 mm 2 mps 648 mmHg 38%
23:00 +14°C° 0 mm 2 mps 649 mmHg 36%

1 Noviembre, Domingo

Tiempo Temperatura Precipitaciones Viento Presión Humedad
00:00 +13°C° 0 mm 2 mps 649 mmHg 34%
01:00 +13°C° 0 mm 1 mps 649 mmHg 35%
02:00 +12°C° 0 mm 1 mps 648 mmHg 36%
03:00 +11°C° 0 mm 1 mps 648 mmHg 37%
04:00 +11°C° 0 mm 1 mps 648 mmHg 37%
05:00 +10°C° 0 mm 1 mps 648 mmHg 36%
06:00 +10°C° 0 mm 1 mps 648 mmHg 36%
07:00 +12°C° 0 mm 1 mps 649 mmHg 31%
08:00 +15°C° 0 mm 1 mps 651 mmHg 25%
09:00 +18°C° 0 mm 1 mps 652 mmHg 20%
10:00 +19°C° 0 mm 2 mps 652 mmHg 18%
11:00 +20°C° 0 mm 3 mps 652 mmHg 16%
12:00 +22°C° 0 mm 4 mps 652 mmHg 15%
13:00 +22°C° 0 mm 5 mps 652 mmHg 15%
14:00 +22°C° 0 mm 5 mps 652 mmHg 15%
15:00 +22°C° 0 mm 6 mps 651 mmHg 14%
16:00 +19°C° 0 mm 5 mps 651 mmHg 17%
17:00 +17°C° 0 mm 3 mps 650 mmHg 20%
18:00 +14°C° 0 mm 2 mps 649 mmHg 23%
19:00 +13°C° 0 mm 2 mps 649 mmHg 24%
20:00 +13°C° 0 mm 2 mps 649 mmHg 25%
21:00 +12°C° 0 mm 1 mps 649 mmHg 26%
22:00 +11°C° 0 mm 1 mps 649 mmHg 28%
23:00 +11°C° 0 mm 1 mps 649 mmHg 30%

2 Noviembre, Lunes

Tiempo Temperatura Precipitaciones Viento Presión Humedad
00:00 +10°C° 0 mm 1 mps 649 mmHg 33%
01:00 +10°C° 0 mm 1 mps 649 mmHg 33%
02:00 +10°C° 0 mm 1 mps 649 mmHg 33%
03:00 +10°C° 0 mm 1 mps 649 mmHg 33%
04:00 +10°C° 0 mm 1 mps 649 mmHg 33%
05:00 +10°C° 0 mm 1 mps 649 mmHg 32%
06:00 +10°C° 0 mm 1 mps 649 mmHg 32%
07:00 +12°C° 0 mm 1 mps 650 mmHg 28%
08:00 +15°C° 0 mm 2 mps 651 mmHg 25%
09:00 +17°C° 0 mm 2 mps 652 mmHg 22%
10:00 +18°C° 0 mm 3 mps 652 mmHg 23%
11:00 +19°C° 0 mm 4 mps 653 mmHg 23%
12:00 +20°C° 0 mm 6 mps 653 mmHg 24%
13:00 +19°C° 0.1 mm 5 mps 653 mmHg 33%
14:00 +18°C° 0.1 mm 3 mps 652 mmHg 41%
15:00 +16°C° 0.1 mm 2 mps 652 mmHg 49%
16:00 +16°C° 0 mm 2 mps 652 mmHg 52%
17:00 +15°C° 0 mm 1 mps 652 mmHg 54%
18:00 +14°C° 0 mm 1 mps 651 mmHg 56%
19:00 +14°C° 0 mm 1 mps 651 mmHg 57%
20:00 +13°C° 0 mm 1 mps 651 mmHg 57%
21:00 +13°C° 0 mm 2 mps 651 mmHg 58%
22:00 +12°C° 0 mm 2 mps 651 mmHg 59%
23:00 +12°C° 0 mm 2 mps 651 mmHg 60%
Mostrar más

Necesitamos Su Consentimiento

Meteoprog y nuestros Proveedores de Servicios pueden almacenar y acceder a sus datos personales como cookies, identificadores de dispositivo u otras tecnologías similares de su dispositivo y procesar dichos datos para personalizar contenido y anuncios, además de ofrecer funciones de redes sociales y analizar el tráfico.

  • Almacenar y/o acceder a información en su dispositivo

    Se puede almacenar o acceder a cookies, identificadores de dispositivo u otra información de su dispositivo para los fines anteriormente indicados.

  • Anuncios y contenido personalizados, medición de anuncios y contenido, percepciones del público, y desarrollo de productos

    Los anuncios y el contenido pueden personalizarse en base a su perfil. Se pueden añadir más datos para personalizar mejor los anuncios y contenidos. Se puede medir el rendimiento de los anuncios y contenidos. Se puede obtener la percepción sobre el público que ha visto los anuncios y contenidos. Dichos datos pueden usarse para desarrollar o mejorar la experiencia del usuario, sistemas y software.

Al hacer clic en ‘Estoy De Acuerdo’ usted permitirá el uso de las cookies, identificadores de dispositivo, balizas web u otras tecnologías similares indicadas. Su configuración puede cambiarse desde el navegador de su dispositivo.

Para ciertos fines, los intereses legítimos pueden ser considerados por encima del consentimiento. Puede leer más sobre ello en nuestra Política de Privacidad y Cookies.